Regional Weather Roundup
Issued by NWS

Home | Current Version | Previous Version | Graphics & Text | Print | Product List | Glossary On
Versions: 1 2 3 4 5 6 7 8 9 10 11 12 13 14 15 16 17 18 19 20 21 22 23 24 25 26 27 28 29 30 31 32 33 34 35 36 37 38 39 40 41 42 43 44 45 46 47 48 49 50
000
ASUS43 KDMX 251801
RWRIA

WEATHER ROUNDUP FOR IOWA
NATIONAL WEATHER SERVICE DES MOINES IA
1200 PM CST SAT FEB 25 2017

NOTE: "FAIR" INDICATES FEW OR NO CLOUDS BELOW 12,000 FEET WITH NO
SIGNIFICANT WEATHER AND/OR OBSTRUCTIONS TO VISIBILITY.

* - THESE STATIONS ARE NOT NWS STATIONS...THUS NOT UNDER NWS
QUALITY CONTROL.  THEY ALSO DO NOT REPORT WEATHER SUCH
AS PRECIPITATION OR FOG.

IAZ001>003-012>014-020>022-031>034-043>046-251900-
   NORTHWEST IOWA

CITY           SKY/WX    TMP DP  RH WIND       PRES   REMARKS
CARROLL *      MOSUNNY   25  16  68 W9        30.08F WCI  15
CHEROKEE *     CLOUDY    23  16  76 SW7       30.06S WCI  14
DENISON *      PTSUNNY   23  16  74 SW6       30.07S WCI  16
LE MARS *      CLOUDY    25  16  68 SW9       30.06F WCI  15
SHELDON *      CLOUDY    23  21  93 SW8       30.01S WCI  14
SIOUX CITY     CLOUDY    26  15  63 S8        30.08F WCI  18
6HR MIN TEMP:  12; 6HR MAX TEMP:  26;

SPENCER        PTSUNNY   23  16  74 W10       30.03S WCI  12
6HR MIN TEMP:   8; 6HR MAX TEMP:  23;

STORM LAKE *     N/A     19  16  86 SW10      30.04F WCI   8
$$

IAZ055>058-069>071-079>083-090>094-251900-
   SOUTHWEST IOWA

CITY           SKY/WX    TMP DP  RH WIND       PRES   REMARKS
ATLANTIC *     CLOUDY    25  16  68 W7        30.12R WCI  17
AUDUBON *      MOSUNNY   25  14  63 CALM      30.08F
CLARINDA *     CLOUDY    27  18  69 W8        30.17S WCI  18
COUNCIL BLFS * MOSUNNY   27  16  63 SW8       30.11F WCI  18
CRESTON *      CLOUDY    27  14  59 W9        30.11S WCI  17
HARLAN  *      CLOUDY    23  18  80 W9        30.14S WCI  13
LAMONI         MOSUNNY   27  15  61 NW12      30.10S WCI  17
6HR MIN TEMP:  13; 6HR MAX TEMP:  27;

RED OAK *      CLOUDY    28  18  64 W6        30.14S WCI  22
SHENANDOAH *   MOSUNNY   28  16  59 W5        30.16S WCI  23
$$

IAZ047>049-059>061-072>074-084-251900-
   CENTRAL IOWA

CITY           SKY/WX    TMP DP  RH WIND       PRES   REMARKS
AMES           SUNNY     25  17  72 NW10      30.07S WCI  15
6HR MIN TEMP:  15; 6HR MAX TEMP:  25;

ANKENY *       SUNNY     25  12  58 NW10      30.09F WCI  15
BOONE *        SUNNY     23  12  63 W8        30.05S WCI  14
CHARITON *     CLOUDY    25  12  58 NW13      30.08S WCI  13
DES MOINES     PTSUNNY   26  13  57 NW13      30.09S WCI  15
6HR MIN TEMP:  17; 6HR MAX TEMP:  26;

GRINNELL*      SUNNY     24  15  69 W15       30.06R WCI  11
KNOXVILLE *    SUNNY     25  12  58 NW13      30.07S WCI  13
MARSHALLTOWN   SUNNY     23  14  68 NW14      30.04R WCI  11
6HR MIN TEMP:  14; 6HR MAX TEMP:  23;

NEWTON *       SUNNY     25  12  58 NW14      30.06S WCI  13
PELLA *        SUNNY     26  14  60 NW13G20   30.09S WCI  15
PERRY *          N/A     26  11  55 W7        30.10R WCI  18
$$

IAZ004>006-015-016-023>025-035-036-251900-
   NORTH CENTRAL IOWA

CITY           SKY/WX    TMP DP  RH WIND       PRES   REMARKS
ALGONA *       LGT SNOW  21  14  73 W10       30.02S WCI  10
CLARION *      SUNNY     21  14  73 NW10      30.04R WCI  10
ESTHERVILLE    SUNNY     22  14  71 W9        30.00F WCI  12
6HR MIN TEMP:  10; 6HR MAX TEMP:  22;

FORT DODGE *   SUNNY     23  12  63 W8        30.06S WCI  14
MASON CITY     SUNNY     20  11  68 NW14      30.01S WCI   7
6HR MIN TEMP:  11; 6HR MAX TEMP:  20;

FOREST CITY *    N/A     25  14  63 NW10      30.01R WCI  15
WEBSTER CITY * SUNNY     21  12  68 W12       30.04R WCI   9
IOWA FALLS *     N/A     24  14  65 NW12      30.04S WCI  13
$$

IAZ007>011-017>019-026>030-037>042-050>054-066-251900-
   NORTHEAST IOWA

CITY           SKY/WX    TMP DP  RH WIND       PRES   REMARKS
CEDAR RAPIDS   SUNNY     21  14  74 NW21      30.00R WCI   5
6HR MIN TEMP:  15; 6HR MAX TEMP:  21;

CHARLES CITY * SUNNY     21   9  58 NW15G23   29.99S WCI   8
CLINTON *      MOSUNNY   24  17  74 W24G30    29.95R WCI   8
DECORAH *      SUNNY     19   9  63 W13G21    29.94R WCI   7
DUBUQUE        MOSUNNY   20  12  71 W20G26    29.92R WCI   4
6HR MIN TEMP:  15; 6HR MAX TEMP:  20; 6HR PCP: TRACE;

MONTICELLO *   SUNNY     23  12  63 NW21G28   29.97R WCI   8
OELWEIN *      SUNNY     21  12  68 NW21G26   29.98R WCI   6
WATERLOO       SUNNY     22  11  62 W12       30.01S WCI  10
6HR MIN TEMP:  15; 6HR MAX TEMP:  22;

$$

IAZ064-065-067-068-078-251900-
   EAST CENTRAL IOWA

CITY           SKY/WX    TMP DP  RH WIND       PRES   REMARKS
DAVENPORT      PTSUNNY   24  16  71 W24G31    29.98R WCI   8
6HR MIN TEMP:  18; 6HR MAX TEMP:  24; 6HR PCP: TRACE;

IOWA CITY      SUNNY     24  12  60 NW20G31   30.04R WCI  10
6HR MIN TEMP:  19; 6HR MAX TEMP:  24;

MUSCATINE *    PTSUNNY   25  16  68 NW18G28   30.04R WCI  11
QUAD CITIES    PTSUNNY   27  16  63 NW18      29.98R WCI  14
6HR MIN TEMP:  22; 6HR MAX TEMP:  27;

$$

IAZ062-063-075>077-085>089-095>099-251900-
   SOUTHEAST IOWA

CITY           SKY/WX    TMP DP  RH WIND       PRES   REMARKS
BURLINGTON     SUNNY     27  16  63 W13G26    30.03S WCI  16
6HR MIN TEMP:  20; 6HR MAX TEMP:  27;

FAIRFIELD *    SUNNY     25  12  58 NW18G25   30.05S WCI  11
KEOKUK *       SUNNY     28  18  64 W14G24    30.05S WCI  17
CENTERVILLE *    N/A     28  16  59 W15       30.09S WCI  17
OTTUMWA        SUNNY     26  12  55 NW14      30.06R WCI  14
6HR MIN TEMP:  17; 6HR MAX TEMP:  26;

WASHINGTON *   SUNNY     23  14  68 W20       30.06R WCI   8
$$

ABBREVIATIONS USED IN REMARKS
   TC - TEMPERATURES IN CELSIUS
  WCI - WIND CHILL INDEX
   HX - HEAT INDEX
  VSB - VISIBILITY
$$





USA.gov is the U.S. government's official web portal to all federal, state and local government web resources and services.